Time,TemperatureF,DewpointF,PressureIn,WindDirection,WindDirectionDegrees,WindSpeedMPH,WindSpeedGustMPH,Humidity,HourlyPrecipIn,Conditions,Clouds,dailyrainin,SoftwareType,DateUTC
2013-04-06 00:13:00,56.5,50.0,29.99,ESE,115,4.0,5.0,78,0.00,,,0.00,weatherlink.com 1.10,2013-04-06 06:13:00,
2013-04-06 00:28:00,56.5,50.0,29.99,SE,131,1.0,4.0,78,0.00,,,0.00,weatherlink.com 1.10,2013-04-06 06:28:00,
2013-04-06 00:43:00,55.8,50.0,29.98,East,91,4.0,4.0,80,0.00,,,0.00,weatherlink.com 1.10,2013-04-06 06:43:00,
2013-04-06 00:58:00,55.6,50.0,29.98,ESE,113,5.0,5.0,81,0.00,,,0.00,weatherlink.com 1.10,2013-04-06 06:58:00,
2013-04-06 01:13:00,55.9,50.0,29.97,ESE,119,4.0,7.0,80,0.00,,,0.00,weatherlink.com 1.10,2013-04-06 07:13:00,
2013-04-06 01:28:00,55.7,50.0,29.97,ESE,113,6.0,6.0,81,0.00,,,0.00,weatherlink.com 1.10,2013-04-06 07:28:00,
2013-04-06 01:43:00,55.8,50.0,29.96,ESE,104,3.0,7.0,80,0.00,,,0.00,weatherlink.com 1.10,2013-04-06 07:43:00,
2013-04-06 01:58:00,55.8,50.0,29.95,SE,124,4.0,7.0,80,0.00,,,0.00,weatherlink.com 1.10,2013-04-06 07:58:00,
2013-04-06 02:13:00,55.8,50.0,29.94,ESE,122,5.0,8.0,80,0.00,,,0.00,weatherlink.com 1.10,2013-04-06 08:13:00,
2013-04-06 03:28:00,55.5,50.0,29.94,SSE,148,2.0,6.0,81,0.00,,,0.00,weatherlink.com 1.10,2013-04-06 09:28:00,
2013-04-06 03:59:00,55.2,50.0,29.93,SE,130,2.0,6.0,82,0.00,,,0.00,weatherlink.com 1.10,2013-04-06 09:59:00,
2013-04-06 04:14:00,55.5,50.0,29.93,SE,127,5.0,8.0,81,0.00,,,0.00,weatherlink.com 1.10,2013-04-06 10:14:00,
2013-04-06 04:29:00,55.4,50.0,29.93,ESE,115,4.0,5.0,81,0.00,,,0.00,weatherlink.com 1.10,2013-04-06 10:29:00,
2013-04-06 04:44:00,55.2,50.0,29.94,SE,127,2.0,7.0,81,0.00,,,0.00,weatherlink.com 1.10,2013-04-06 10:44:00,
2013-04-06 04:59:00,54.9,50.0,29.94,ESE,119,4.0,4.0,83,0.00,,,0.00,weatherlink.com 1.10,2013-04-06 10:59:00,
2013-04-06 05:29:00,54.4,50.0,29.93,SSE,158,3.0,7.0,84,0.00,,,0.00,weatherlink.com 1.10,2013-04-06 11:29:00,
2013-04-06 05:44:00,54.3,50.0,29.94,SE,134,1.0,5.0,84,0.00,,,0.00,weatherlink.com 1.10,2013-04-06 11:44:00,
2013-04-06 06:14:00,54.1,49.0,29.95,SE,138,2.0,5.0,84,0.00,,,0.00,weatherlink.com 1.10,2013-04-06 12:14:00,
2013-04-06 06:29:00,54.3,49.0,29.95,SE,143,3.0,7.0,83,0.00,,,0.00,weatherlink.com 1.10,2013-04-06 12:29:00,
2013-04-06 06:44:00,54.5,49.0,29.95,ESE,121,1.0,5.0,82,0.00,,,0.00,weatherlink.com 1.10,2013-04-06 12:44:00,
2013-04-06 06:59:00,54.9,50.0,29.97,SE,143,1.0,4.0,82,0.00,,,0.00,weatherlink.com 1.10,2013-04-06 12:59:00,
2013-04-06 07:14:00,57.1,50.0,29.96,SE,146,2.0,6.0,77,0.00,,,0.00,weatherlink.com 1.10,2013-04-06 13:14:00,
2013-04-06 07:29:00,57.2,49.0,29.95,SE,143,6.0,7.0,75,0.00,,,0.00,weatherlink.com 1.10,2013-04-06 13:29:00,
2013-04-06 07:44:00,58.4,49.0,29.96,SE,137,5.0,8.0,72,0.00,,,0.00,weatherlink.com 1.10,2013-04-06 13:44:00,
2013-04-06 07:59:00,59.3,49.0,29.95,South,176,8.0,10.0,69,0.00,,,0.00,weatherlink.com 1.10,2013-04-06 13:59:00,
2013-04-06 08:14:00,60.3,50.0,29.94,SE,127,8.0,13.0,68,0.00,,,0.00,weatherlink.com 1.10,2013-04-06 14:14:00,
2013-04-06 08:29:00,61.3,50.0,29.93,SSE,152,7.0,16.0,66,0.00,,,0.00,weatherlink.com 1.10,2013-04-06 14:29:00,
2013-04-06 08:44:00,62.0,51.0,29.94,SSW,195,4.0,17.0,67,0.00,,,0.00,weatherlink.com 1.10,2013-04-06 14:44:00,
2013-04-06 08:59:00,63.4,51.0,29.94,SE,136,11.0,11.0,65,0.00,,,0.00,weatherlink.com 1.10,2013-04-06 14:59:00,
2013-04-06 09:14:00,63.8,51.0,29.94,SE,136,8.0,17.0,64,0.00,,,0.00,weatherlink.com 1.10,2013-04-06 15:14:00,
2013-04-06 09:29:00,64.4,52.0,29.94,SE,129,4.0,17.0,64,0.00,,,0.00,weatherlink.com 1.10,2013-04-06 15:29:00,
2013-04-06 09:44:00,65.2,52.0,29.94,SE,125,11.0,19.0,63,0.00,,,0.00,weatherlink.com 1.10,2013-04-06 15:44:00,
2013-04-06 09:59:00,65.6,52.0,29.94,SE,143,7.0,14.0,62,0.00,,,0.00,weatherlink.com 1.10,2013-04-06 15:59:00,
2013-04-06 10:14:00,66.2,52.0,29.95,SE,134,6.0,18.0,60,0.00,,,0.00,weatherlink.com 1.10,2013-04-06 16:14:00,
2013-04-06 10:29:00,66.7,52.0,29.94,SE,139,4.0,18.0,59,0.00,,,0.00,weatherlink.com 1.10,2013-04-06 16:29:00,
2013-04-06 10:44:00,67.8,53.0,29.95,SE,146,6.0,14.0,59,0.00,,,0.00,weatherlink.com 1.10,2013-04-06 16:44:00,
2013-04-06 10:59:00,68.0,52.0,29.94,SE,131,5.0,14.0,57,0.00,,,0.00,weatherlink.com 1.10,2013-04-06 16:59:00,
2013-04-06 11:14:00,68.4,50.0,29.94,SSE,158,10.0,14.0,52,0.00,,,0.00,weatherlink.com 1.10,2013-04-06 17:14:00,
2013-04-06 12:00:00,69.9,53.0,29.92,SSE,155,6.0,15.0,55,0.00,,,0.00,weatherlink.com 1.10,2013-04-06 18:00:00,
2013-04-06 12:15:00,69.9,52.0,29.91,SE,132,9.0,19.0,54,0.00,,,0.00,weatherlink.com 1.10,2013-04-06 18:15:00,
2013-04-06 12:30:00,70.5,52.0,29.90,SSE,158,7.0,14.0,53,0.00,,,0.00,weatherlink.com 1.10,2013-04-06 18:30:00,
2013-04-06 12:45:00,71.2,54.0,29.89,South,185,8.0,18.0,54,0.00,,,0.00,weatherlink.com 1.10,2013-04-06 18:45:00,
2013-04-06 13:00:00,71.9,53.0,29.88,SE,126,7.0,15.0,51,0.00,,,0.00,weatherlink.com 1.10,2013-04-06 19:00:00,
2013-04-06 13:15:00,72.0,53.0,29.88,SE,135,7.0,15.0,51,0.00,,,0.00,weatherlink.com 1.10,2013-04-06 19:15:00,
2013-04-06 13:30:00,72.7,54.0,29.86,SE,143,7.0,12.0,52,0.00,,,0.00,weatherlink.com 1.10,2013-04-06 19:30:00,
2013-04-06 13:45:00,73.1,54.0,29.86,SSE,158,5.0,16.0,51,0.00,,,0.00,weatherlink.com 1.10,2013-04-06 19:45:00,
2013-04-06 14:00:00,73.3,56.0,29.85,SE,126,5.0,17.0,54,0.00,,,0.00,weatherlink.com 1.10,2013-04-06 20:00:00,
2013-04-06 14:15:00,73.5,55.0,29.84,SE,126,8.0,14.0,52,0.00,,,0.00,weatherlink.com 1.10,2013-04-06 20:15:00,
2013-04-06 14:30:00,73.7,55.0,29.84,SE,129,4.0,16.0,52,0.00,,,0.00,weatherlink.com 1.10,2013-04-06 20:30:00,
2013-04-06 14:45:00,73.8,57.0,29.83,SSW,207,13.0,14.0,55,0.00,,,0.00,weatherlink.com 1.10,2013-04-06 20:45:00,
2013-04-06 15:00:00,73.8,57.0,29.83,SSW,207,4.0,14.0,55,0.00,,,0.00,weatherlink.com 1.10,2013-04-06 21:00:00,
2013-04-06 15:15:00,73.6,57.0,29.83,SE,131,7.0,12.0,56,0.00,,,0.00,weatherlink.com 1.10,2013-04-06 21:15:00,
2013-04-06 15:30:00,73.1,56.0,29.82,SSE,162,7.0,13.0,56,0.00,,,0.00,weatherlink.com 1.10,2013-04-06 21:30:00,
2013-04-06 15:45:00,73.1,57.0,29.82,SSE,163,6.0,14.0,58,0.00,,,0.00,weatherlink.com 1.10,2013-04-06 21:45:00,
2013-04-06 16:00:00,72.6,58.0,29.82,SE,140,6.0,17.0,61,0.00,,,0.00,weatherlink.com 1.10,2013-04-06 22:00:00,
2013-04-06 16:15:00,72.4,57.0,29.82,SE,134,8.0,13.0,59,0.00,,,0.00,weatherlink.com 1.10,2013-04-06 22:15:00,
2013-04-06 16:30:00,72.1,58.0,29.82,SE,145,7.0,10.0,62,0.00,,,0.00,weatherlink.com 1.10,2013-04-06 22:30:00,
2013-04-06 16:45:00,72.0,58.0,29.82,SSE,153,5.0,11.0,62,0.00,,,0.00,weatherlink.com 1.10,2013-04-06 22:45:00,
2013-04-06 17:00:00,71.8,58.0,29.82,SE,131,6.0,9.0,63,0.00,,,0.00,weatherlink.com 1.10,2013-04-06 23:00:00,
2013-04-06 17:30:00,71.0,58.0,29.82,SW,225,5.0,12.0,64,0.00,,,0.00,weatherlink.com 1.10,2013-04-06 23:30:00,
2013-04-06 17:45:00,71.1,58.0,29.82,ESE,115,6.0,11.0,64,0.00,,,0.00,weatherlink.com 1.10,2013-04-06 23:45:00,
2013-04-06 18:00:00,71.1,58.0,29.82,SE,135,3.0,10.0,64,0.00,,,0.00,weatherlink.com 1.10,2013-04-07 00:00:00,
2013-04-06 18:15:00,70.7,58.0,29.81,SE,126,6.0,12.0,65,0.00,,,0.00,weatherlink.com 1.10,2013-04-07 00:15:00,
2013-04-06 18:30:00,70.5,58.0,29.81,SE,139,3.0,11.0,65,0.00,,,0.00,weatherlink.com 1.10,2013-04-07 00:30:00,
2013-04-06 18:45:00,69.7,58.0,29.82,East,98,5.0,9.0,67,0.00,,,0.00,weatherlink.com 1.10,2013-04-07 00:45:00,
2013-04-06 19:00:00,69.3,58.0,29.82,ESE,122,4.0,9.0,67,0.00,,,0.00,weatherlink.com 1.10,2013-04-07 01:00:00,
2013-04-06 19:15:00,68.6,58.0,29.82,ESE,117,6.0,7.0,69,0.00,,,0.00,weatherlink.com 1.10,2013-04-07 01:15:00,
2013-04-06 19:30:00,68.3,58.0,29.83,SE,136,4.0,6.0,70,0.00,,,0.00,weatherlink.com 1.10,2013-04-07 01:30:00,
2013-04-06 19:45:00,68.3,58.0,29.84,SSE,148,2.0,6.0,70,0.00,,,0.00,weatherlink.com 1.10,2013-04-07 01:45:00,
2013-04-06 20:00:00,68.3,58.0,29.84,ESE,114,3.0,8.0,70,0.00,,,0.00,weatherlink.com 1.10,2013-04-07 02:00:00,
2013-04-06 20:15:00,68.0,58.0,29.84,SE,136,2.0,5.0,71,0.00,,,0.00,weatherlink.com 1.10,2013-04-07 02:15:00,
2013-04-06 20:30:00,67.8,58.0,29.84,ESE,118,8.0,8.0,71,0.00,,,0.00,weatherlink.com 1.10,2013-04-07 02:30:00,
2013-04-06 20:45:00,67.4,58.0,29.84,SE,125,3.0,8.0,72,0.00,,,0.00,weatherlink.com 1.10,2013-04-07 02:45:00,
2013-04-06 21:00:00,67.0,58.0,29.85,ESE,121,4.0,8.0,73,0.00,,,0.00,weatherlink.com 1.10,2013-04-07 03:00:00,
2013-04-06 21:16:00,66.6,58.0,29.85,ESE,119,5.0,8.0,73,0.00,,,0.00,weatherlink.com 1.10,2013-04-07 03:16:00,
2013-04-06 21:30:00,66.2,58.0,29.85,ESE,121,4.0,6.0,74,0.00,,,0.00,weatherlink.com 1.10,2013-04-07 03:30:00,
2013-04-06 21:45:00,66.0,58.0,29.86,ESE,103,4.0,6.0,75,0.00,,,0.00,weatherlink.com 1.10,2013-04-07 03:45:00,
2013-04-06 22:00:00,65.5,57.0,29.85,ESE,117,4.0,8.0,75,0.00,,,0.00,weatherlink.com 1.10,2013-04-07 04:00:00,
2013-04-06 22:15:00,65.2,57.0,29.85,ESE,114,4.0,6.0,76,0.00,,,0.00,weatherlink.com 1.10,2013-04-07 04:15:00,
2013-04-06 22:30:00,65.1,57.0,29.85,East,98,3.0,7.0,76,0.00,,,0.00,weatherlink.com 1.10,2013-04-07 04:30:00,
2013-04-06 22:45:00,64.9,57.0,29.85,ESE,113,5.0,7.0,76,0.00,,,0.00,weatherlink.com 1.10,2013-04-07 04:45:00,
2013-04-06 23:00:00,64.6,57.0,29.84,SE,136,2.0,8.0,76,0.00,,,0.00,weatherlink.com 1.10,2013-04-07 05:00:00,
2013-04-06 23:15:00,64.5,57.0,29.85,SE,124,4.0,8.0,76,0.00,,,0.00,weatherlink.com 1.10,2013-04-07 05:15:00,
2013-04-06 23:30:00,64.3,57.0,29.84,ESE,111,5.0,9.0,77,0.00,,,0.00,weatherlink.com 1.10,2013-04-07 05:30:00,
2013-04-06 23:45:00,63.8,57.0,29.84,SE,125,6.0,8.0,78,0.00,,,0.00,weatherlink.com 1.10,2013-04-07 05:45:00,